This is the latest recevied weather packets stored in our database for station/object KB4KY. If no packets are shown the sender has not sent any weather packets the latest 10 day(s).
| Time | Temp. | Humidity | Pressure | Rain* | Wind** | Luminosity | Snow |
|---|---|---|---|---|---|---|---|
| 1777405972 | 26.67° C | 65% | 1013.4 hPa | 0 mm | - | - | - |
| 1777405673 | 26.67° C | 63% | 1013.5 hPa | 0 mm | - | - | - |
| 1777405373 | 26.67° C | 59% | 1013.7 hPa | 0 mm | - | - | - |
| 1777405071 | 26.67° C | 60% | 1013.6 hPa | 0 mm | - | - | - |
| 1777404772 | 26.67° C | 61% | 1013.8 hPa | 0 mm | - | - | - |
| 1777404473 | 26.67° C | 63% | 1013.9 hPa | 0 mm | - | - | - |
| 1777404321 | 26.67° C | 64% | 1013.9 hPa | 0 mm | - | - | - |
| 1777404175 | 26.67° C | 64% | 1013.9 hPa | 0 mm | - | - | - |
| 1777404154 | 26.67° C | 64% | 1013.9 hPa | 0 mm | - | - | - |
| 1777403873 | 26.67° C | 64% | 1013.9 hPa | 0 mm | - | - | - |
| 1777403606 | 26.67° C | 63% | 1013.8 hPa | 0 mm | - | - | - |
| 1777403570 | 26.67° C | 63% | 1013.8 hPa | 0 mm | - | - | - |
| 1777403270 | 26.67° C | 64% | 1013.8 hPa | 0 mm | - | - | - |
| 1777402969 | 26.67° C | 62% | 1013.9 hPa | 0 mm | - | - | - |
| 1777402669 | 26.67° C | 64% | 1013.7 hPa | 0 mm | - | - | - |
| 1777402369 | 26.67° C | 63% | 1013.5 hPa | 0 mm | - | - | - |
| 1777402068 | 26.67° C | 63% | 1013.3 hPa | 0 mm | - | - | - |
| 1777401768 | 26.67° C | 62% | 1013.3 hPa | 0 mm | - | - | - |
| 1777401168 | 26.11° C | 67% | 1013.4 hPa | 0 mm | - | - | - |
| 1777400868 | 26.11° C | 67% | 1013.5 hPa | 0 mm | - | - | - |
| 1777400857 | 25.56° C | 69% | 1013.6 hPa | 0 mm | - | - | - |
| 1777400568 | 25.56° C | 68% | 1013.5 hPa | 0 mm | - | - | - |
| 1777400275 | 25.56° C | 69% | 1013.6 hPa | 0 mm | - | - | - |
| 1777400090 | 25° C | 72% | 1013.7 hPa | 0 mm | - | - | - |
| 1777399969 | 25° C | 72% | 1013.7 hPa | 0 mm | - | - | - |
* Rain latest hour (hover to see other rain measurements)
** Current wind speed in m/s (hover to see current wind gust speed)